BADR-7 (ARABSAT-6B)

Last updated on Aug. 3, 2020, 5:32 a.m. UTC

1 41029U 15065B   20215.57325729  .00000126  00000-0  00000-0 0  9992
2 41029   0.0074 211.3358 0005012 354.0566 338.5675  1.00274471 17268
UTC
Height (km)
Latitude
Longitude
Inclination
Orbital Period
UTC large
Height (km)
Speed (km/s)
/
Latitude / Longitude
Inclination (degrees)
Orbital Period (minutes)
Azimuth
Elevation
Range (km)
Doppler Factor
iOS Compass Heading
iOS Angle

Next 30 passes for location: Hong Kong

Rise time Rise Azimuth (degrees) Set time Set Azimuth (degrees) Duration Max altitude (degrees)

No matching passes for this satellites